This is the latest recevied weather packets stored in our database for station/object N4MGC. If no packets are shown the sender has not sent any weather packets the latest 10 day(s).
| Time | Temp. | Humidity | Pressure | Rain* | Wind** | Luminosity | Snow |
|---|---|---|---|---|---|---|---|
| 1777706809 | 13.89° C | 59% | 1013.6 hPa | 0 mm | - | 0 W/m² | - |
| 1777706507 | 13.89° C | 59% | 1013.7 hPa | 0 mm | - | 0 W/m² | - |
| 1777706204 | 13.89° C | 60% | 1013.8 hPa | 0 mm | - | 0 W/m² | - |
| 1777705902 | 13.89° C | 58% | 1014 hPa | 0 mm | - | 0 W/m² | - |
| 1777705600 | 14.44° C | 60% | 1014.4 hPa | 0 mm | - | 0 W/m² | - |
| 1777705298 | 14.44° C | 58% | 1014.3 hPa | 0 mm | - | 0 W/m² | - |
| 1777704996 | 14.44° C | 59% | 1014.5 hPa | 0 mm | - | 0 W/m² | - |
| 1777704693 | 14.44° C | 59% | 1014.3 hPa | 0 mm | - | 0 W/m² | - |
| 1777704392 | 14.44° C | 60% | 1014.6 hPa | 0 mm | - | 0 W/m² | - |
| 1777704089 | 14.44° C | 61% | 1014.7 hPa | 0 mm | - | 0 W/m² | - |
| 1777703786 | 14.44° C | 61% | 1014.5 hPa | 0 mm | - | 0 W/m² | - |
| 1777703484 | 14.44° C | 61% | 1014.7 hPa | 0 mm | - | 0 W/m² | - |
| 1777703180 | 14.44° C | 62% | 1014.7 hPa | 0 mm | - | 0 W/m² | - |
| 1777702878 | 14.44° C | 64% | 1015 hPa | 0 mm | - | 0 W/m² | - |
| 1777702576 | 15° C | 65% | 1014.7 hPa | 0 mm | - | 0 W/m² | - |
| 1777702274 | 15° C | 64% | 1014.7 hPa | 0 mm | - | 0 W/m² | - |
| 1777701974 | 15° C | 64% | 1014.6 hPa | 0 mm | - | 0 W/m² | - |
| 1777701671 | 15° C | 66% | 1014.4 hPa | 0 mm | - | 0 W/m² | - |
| 1777701368 | 15° C | 70% | 1014.5 hPa | 0 mm | - | 0 W/m² | - |
| 1777701067 | 15° C | 67% | 1014.6 hPa | 0 mm | - | 0 W/m² | - |
| 1777700765 | 15° C | 68% | 1014.3 hPa | 0 mm | - | 0 W/m² | - |
| 1777700462 | 15° C | 70% | 1014.4 hPa | 0 mm | - | 0 W/m² | - |
| 1777700159 | 15° C | 73% | 1014.5 hPa | 0 mm | - | 0 W/m² | - |
| 1777699856 | 15° C | 75% | 1013.9 hPa | 0 mm | - | 0 W/m² | - |
| 1777699555 | 15° C | 76% | 1014.2 hPa | 0 mm | - | 0 W/m² | - |
* Rain latest hour (hover to see other rain measurements)
** Current wind speed in m/s (hover to see current wind gust speed)